Simultaneous Nadir Overpasses (SNOs) Predictions

Prediction of SNOs between GOES-15 and METOP-A Satellite Orbit:

Table of predicted SNOs for the next 14.0 days since TLE Epoch: 3/20/2021
Index Date Time (GOES-15) GOES-15 Lat,Lon METOP-A Lat,Lon Distance(km) Time Diff (sec)
1 03/21/2021 04:34:26 -0.13,-128.36 0.63,-125.03 380.25 80
2 03/22/2021 16:55:58 0.13,-128.45 0.39,-129.63 134.58 80
3 03/23/2021 16:32:37 0.13,-128.44 -0.68,-124.64 431.67 80
4 03/25/2021 04:54:17 -0.13,-128.34 -0.33,-129.28 107.38 80
5 03/26/2021 04:30:57 -0.13,-128.33 0.74,-124.29 458.65 80
6 03/27/2021 16:51:04 0.13,-128.40 0.22,-128.91 56.98 5
7 03/30/2021 04:50:48 -0.13,-128.28 -0.22,-128.55 30.96 80
8 04/01/2021 16:49:00 0.13,-128.33 0.10,-128.17 17.65 80
